Weather History for Newark Heath, OH

Change the Weather History Date:

Tuesday, January 1, 2013

  Actual Average Record
Temperature  
Mean Temperature 26 °F -  
Max Temperature 34 °F 38 °F - (-1)
Min Temperature 16 °F 23 °F - (-1)
Degree Days  
Heating Degree Days 40    
Moisture  
Dew Point 24 °F    
Average Humidity 81    
Maximum Humidity 93    
Minimum Humidity 63    
Precipitation  
Precipitation 0.02 in - - ()
Sea Level Pressure  
Sea Level Pressure 30.06 in    
Wind  
Wind Speed 5 mph (WNW)    
Max Wind Speed 10 mph    
Max Gust Speed -    
Visibility 6 miles    
Events Snow    
Averages and records for this station are not official NWS values.
T = Trace of Precipitation, MM = Missing Value Source: NWS Daily Summary

Daily Weather History Graph

Daily Weather History Graph

Search for Another Location

Airport:

Trip Planner

Search our weather history database for the weather conditions in past years. The results will help you decide how hot, cold, wet, or windy it might be!

Date:

Astronomy

Jan. 01, 2013 Rise Set
Actual Time 7:51 AM EST 5:15 PM EST
Civil Twilight 7:21 AM EST 5:45 PM EST
Nautical Twilight 6:47 AM EST 6:19 PM EST
Astronomical Twilight 6:14 AM EST 6:52 PM EST
Moon 9:45 PM EST (1/1) 10:03 AM EST (1/1)
Length of Visible Light 10h 24m
Length of Day
9h 23m
Waning Gibbous, 83% of the Moon is Illuminated
Jan 1
Waning Gibbous
Jan 4
Last Quarter
Jan 11
New
Jan 18
First Quarter
Jan 26
Full

Hourly Weather History & Observations

Time (EST) Temp. Windchill Dew Point Humidity Pressure Visibility Wind Dir Wind Speed Gust Speed Precip Events Conditions
12:54 AM 34.0 °F 28.0 °F 30.0 °F 85% 30.06 in 2.5 mi WSW 6.9 mph - 0.00 in Snow Light Snow
1:29 AM 33.8 °F 27.7 °F 30.2 °F 87% 30.02 in 3.0 mi SW 6.9 mph - 0.00 in Snow Light Snow
1:54 AM 34.0 °F 28.0 °F 30.9 °F 89% 30.04 in 2.5 mi WSW 6.9 mph - 0.01 in Snow Light Snow
2:01 AM 33.8 °F 28.6 °F 30.2 °F 87% 30.01 in 3.0 mi SW 5.8 mph - 0.00 in Snow Light Snow
2:54 AM 33.1 °F 28.7 °F 30.9 °F 92% 30.04 in 4.0 mi SW 4.6 mph - 0.00 in Snow Light Snow
3:54 AM 33.1 °F 27.7 °F 30.0 °F 89% 30.04 in 6.0 mi SW 5.8 mph - 0.00 in   Overcast
4:52 AM 33.8 °F 30.8 °F 30.2 °F 87% 30.00 in 2.0 mi SW 3.5 mph - 0.00 in Snow Light Snow
4:54 AM 33.1 °F 28.7 °F 30.9 °F 92% 30.03 in 1.8 mi SW 4.6 mph - 0.00 in Snow Light Snow
5:17 AM 33.8 °F 30.8 °F 30.2 °F 87% 30.00 in 1.5 mi WSW 3.5 mph - 0.01 in Snow Light Snow
6:17 AM 32.0 °F 28.7 °F 30.2 °F 93% 30.01 in 2.0 mi WSW 3.5 mph - 0.01 in Snow Light Snow
6:54 AM 33.1 °F 28.7 °F 30.0 °F 89% 30.05 in 3.0 mi West 4.6 mph - 0.01 in Snow Light Snow
7:54 AM 32.0 °F - 30.0 °F 92% 30.05 in 5.0 mi Calm Calm - 0.00 in   Overcast
8:03 AM 32.0 °F - 30.2 °F 93% 30.03 in 5.0 mi Calm Calm - N/A   Overcast
8:31 AM 32.0 °F - 30.2 °F 93% 30.03 in 4.0 mi Calm Calm - N/A   Overcast
8:54 AM 32.0 °F 28.7 °F 30.0 °F 92% 30.07 in 5.0 mi West 3.5 mph - N/A   Overcast
9:26 AM 33.8 °F 28.6 °F 28.4 °F 81% 30.05 in 7.0 mi NW 5.8 mph - N/A   Overcast
9:54 AM 32.0 °F 25.6 °F 28.0 °F 85% 30.09 in 4.0 mi NNW 6.9 mph - N/A   Overcast
10:54 AM 32.0 °F 24.2 °F 27.0 °F 82% 30.10 in 4.0 mi North 9.2 mph - N/A   Haze
12:06 PM 32.0 °F 25.6 °F 24.8 °F 75% 30.05 in 6.0 mi North 6.9 mph - N/A   Haze
12:54 PM 30.9 °F 25.2 °F 23.0 °F 72% 30.06 in 8.0 mi NW 5.8 mph - N/A   Overcast
1:54 PM 30.9 °F 24.3 °F 21.0 °F 67% 30.04 in 10.0 mi NNW 6.9 mph - N/A   Overcast
2:14 PM 30.2 °F 22.6 °F 21.2 °F 69% 30.03 in 10.0 mi NW 8.1 mph - N/A   Overcast
2:54 PM 30.0 °F 22.4 °F 19.9 °F 66% 30.05 in 9.0 mi NW 8.1 mph - N/A   Scattered Clouds
4:54 PM 26.1 °F 16.2 °F 17.1 °F 69% 30.10 in 10.0 mi NW 10.4 mph - N/A   Clear
5:54 PM 25.0 °F 19.3 °F 15.1 °F 66% 30.09 in 10.0 mi NNW 4.6 mph - N/A   Clear
6:54 PM 23.0 °F 15.8 °F 12.9 °F 65% 30.12 in 10.0 mi WNW 5.8 mph - N/A   Clear
7:54 PM 21.9 °F 15.7 °F 10.9 °F 63% 30.11 in 10.0 mi WNW 4.6 mph - N/A   Clear
8:54 PM 19.9 °F 11.1 °F 10.9 °F 68% 30.12 in 10.0 mi NNW 6.9 mph - N/A   Clear
9:54 PM 19.9 °F 13.4 °F 10.9 °F 68% 30.13 in 10.0 mi NNW 4.6 mph - N/A   Clear
10:54 PM 17.1 °F - 10.0 °F 74% 30.16 in 10.0 mi Calm Calm - N/A   Clear
11:54 PM 16.0 °F - 10.9 °F 81% 30.16 in 10.0 mi Calm Calm - N/A   Clear